{"data":{"norad_id":53839,"epoch":"2026-09-19T22:36:37.237824Z","epoch_age_seconds":132218,"freshness":"FRESH","line1":"1 53839U 22114X   26262.94209766 -.00007201  00000+0 -43444-3 0  9992","line2":"2 53839  53.1601 141.6772 0001849  88.7418 271.3785 15.08866707222290","mean_motion":15.08866707,"eccentricity":0.0001849,"inclination_deg":53.1601,"raan_deg":141.6772,"arg_perigee_deg":88.7418,"mean_anomaly_deg":271.3785,"bstar":-0.00043444,"rev_number":22229,"period_min":95.435865429298,"perigee_km":538.38265656322,"apogee_km":540.94085854376,"semimajor_km":6917.7987575535,"source":"CELESTRAK","updated_at":"2026-09-21T09:00:33.020540Z"}}